Temperature
21 22 22 22 22 21 21 20 20 20 20 20 19 19 19 20 20 20 21 21 21 21 21 21 21 21 21 20 20 20 20 19 19 19 18 18 18 18 17 17 17 17 17 17
22 22 22 22 22 21 21 21 20 21 20 20 19 19 19 20 20 20 21 21 21 21 21 21 21 21 20 20 20 19 19 19 19 18 18 18 18 18 17 17 17 17 17 16
20 21 22 21 21 21 21 20 20 20 21 19 19 19 19 19 20 20 21 21 21 21 21 21 21 21 20 20 20 19 19 19 19 18 18 18 18 17 17 17 17 16 16 16
17 20 21 20 20 20 20 20 19 20 19 19 19 19 20 20 20 21 21 21 21 21 21 21 21 20 20 20 19 19 19 18 18 18 18 17 17 17 17 16 16 16 16 16
16 19 20 20 20 19 19 20 19 19 19 19 19 19 19 20 21 21 21 21 21 21 21 21 20 20 20 19 19 18 18 18 18 17 17 17 17 16 16 16 16 16 16 15
16 19 19 20 20 19 19 19 19 18 18 18 18 18 18 20 20 20 20 20 21 20 20 20 20 19 19 19 18 18 18 18 17 17 17 16 16 16 16 16 15 15 15 15
16 18 18 18 18 19 19 19 18 18 18 18 17 18 19 20 20 20 20 20 20 20 20 19 19 19 19 18 18 18 18 17 17 16 16 16 16 16 15 15 15 15 15 14
15 17 18 18 18 18 18 18 18 18 18 18 18 19 19 19 19 19 19 19 19 19 19 19 19 19 18 18 18 17 17 17 17 16 16 16 15 15 15 15 15 14 14 14
15 16 17 17 18 18 19 18 19 19 19 19 18 18 18 18 18 18 18 18 18 18 18 18 18 18 18 18 17 17 17 17 16 16 16 15 15 15 15 15 14 14 14 14
14 15 16 17 18 18 19 19 19 19 19 18 18 18 18 18 18 18 18 18 18 18 18 18 18 18 18 17 17 17 16 16 16 15 15 15 15 14 14 14 14 14 14 14
14 15 16 18 18 18 19 19 19 18 18 18 18 18 18 17 18 18 18 17 17 17 17 17 17 17 17 17 17 16 16 15 15 15 15 14 14 14 14 14 14 13 13 13
15 15 15 17 18 18 18 18 18 18 18 17 18 17 17 17 17 17 17 17 17 17 17 16 16 16 16 16 16 16 15 15 15 14 14 14 14 14 13 13 13 13 13 13
17 17 17 17 17 18 18 18 18 18 18 17 17 17 17 17 17 17 17 16 16 16 16 16 16 16 15 15 15 15 14 14 14 14 14 14 13 13 13 13 13 13 13 12
17 17 16 17 17 18 18 18 17 17 17 17 17 16 16 16 16 16 16 16 16 16 16 15 15 15 15 14 14 14 14 14 13 13 13 13 13 13 13 13 13 13 12 12
16 17 17 17 17 17 17 17 17 16 16 16 16 16 16 15 15 15 15 15 15 15 15 15 15 14 14 14 13 13 13 13 13 13 13 13 13 12 13 12 12 12 12 12
16 16 16 16 16 16 16 16 16 16 16 16 15 15 15 15 15 14 14 14 14 14 14 14 14 14 14 13 13 13 13 13 13 13 12 12 12 12 12 12 12 12 12 12
15 15 15 15 16 16 16 16 16 15 15 15 15 15 14 14 14 14 14 14 14 14 14 14 13 13 13 13 13 13 13 13 12 12 12 12 12 12 12 12 12 12 12 12
15 15 16 15 15 15 15 15 15 15 15 15 15 14 14 14 14 14 14 14 13 13 13 13 13 13 13 13 12 12 12 12 12 12 12 12 12 11 11 12 12 11 11 11
15 15 15 15 15 15 15 15 15 15 15 14 14 14 14 14 14 13 13 13 13 13 13 13 12 12 12 12 12 12 12 12 12 12 11 11 11 11 11 11 11 11 11 11
15 15 15 15 15 15 15 15 14 14 14 14 14 14 13 13 13 13 13 13 13 13 12 12 12 12 12 12 12 12 12 12 11 11 11 11 11 11 11 11 11 11 11 11
14 14 14 14 14 14 14 14 14 14 14 13 13 13 13 13 13 13 13 13 12 12 12 12 12 12 12 12 12 11 11 11 11 11 11 11 11 11 11 11 11 10 10 10
13 13 13 13 13 13 13 13 13 13 13 13 13 13 12 12 12 12 12 12 12 12 12 12 11 11 11 11 11 11 11 11 11 11 11 11 10 10 10 10 10 10 10 10
13 13 13 13 13 13 13 13 13 13 12 12 12 12 12 12 12 12 12 12 11 11 11 11 11 11 11 11 11 11 11 11 11 10 10 10 10 10 10 10 10 10 10 10
12 12 12 13 12 12 12 12 12 12 12 12 12 12 11 11 11 11 11 11 11 11 11 11 11 11 10 10 10 10 10 10 10 10 10 10 10 10 10 10 9 9 9 9
12 12 12 12 12 12 12 12 12 12 11 11 11 11 11 11 11 11 11 11 11 11 11 11 10 10 10 10 10 10 10 10 10 10 10 10 10 9 9 9 9 9 9 9
12 12 12 12 12 12 11 11 11 11 11 11 11 11 11 11 11 11 11 11 11 11 11 11 10 10 10 10 10 10 10 10 10 10 9 9 9 9 9 9 9 9 9 9
11 11 11 11 11 11 11 11 11 11 11 11 11 11 11 11 11 11 11 10 10 10 10 10 10 10 10 10 10 9 9 9 9 9 9 9 9 9 9 9 9 8 8 8
Wind_Speed
6 5 4 3 4 5 6 8 9 8 8 9 6 6 5 4 4 4 4 5 6 6 4 4 4 5 5 6 6 6 6 5 5 4 4 3 3 3 3 3 4 4 4 3
2 2 3 2 2 4 4 4 5 4 7 6 2 2 3 4 5 6 6 6 6 6 6 5 5 5 5 5 5 5 6 5 5 4 3 3 3 3 3 3 3 4 4 4
3 2 2 3 4 4 3 3 6 7 7 2 2 4 5 5 5 7 7 7 7 6 6 6 5 5 6 5 5 5 5 5 4 4 4 3 3 3 3 3 3 3 4 4
2 3 5 7 2 3 3 3 4 4 3 4 5 4 3 4 6 6 6 6 5 5 5 4 4 4 4 5 5 5 4 4 4 4 4 3 2 2 3 2 3 3 3 4
4 3 4 4 1 2 2 4 2 2 2 1 2 2 2 2 3 5 5 5 5 5 5 4 4 4 5 4 4 4 4 4 4 4 4 3 3 3 2 2 2 3 3 3
4 4 6 6 3 1 3 3 2 1 3 2 4 2 4 2 2 3 3 4 4 5 5 5 4 5 5 4 4 4 4 4 4 4 4 4 4 3 2 2 2 2 2 2
4 4 5 5 4 1 4 5 3 2 4 5 5 5 3 1 1 2 3 4 4 5 4 4 4 6 5 4 4 4 3 3 3 4 5 5 4 2 2 2 1 1 1 2
4 3 5 3 2 4 5 3 2 2 3 3 1 1 2 3 2 3 4 3 4 4 3 2 4 5 5 4 4 3 3 4 4 4 4 3 3 2 2 2 2 1 1 2
6 5 4 2 3 3 3 2 2 3 2 2 2 1 2 3 2 3 3 3 3 4 3 2 3 5 5 3 2 3 3 3 3 3 2 3 3 3 2 2 2 2 1 1
1 4 3 3 2 2 2 2 2 2 2 4 4 3 3 2 2 3 2 2 3 3 3 2 2 3 4 3 3 4 4 3 2 3 2 2 2 3 3 3 2 2 2 2
2 4 3 3 2 2 1 0 1 2 2 3 5 4 3 3 2 2 2 2 2 2 2 2 1 1 1 2 4 4 3 2 2 2 2 2 1 2 3 3 4 4 3 3
6 6 4 4 3 2 1 1 2 2 2 2 4 4 3 3 2 3 2 2 2 1 1 1 1 1 1 2 4 4 3 2 2 2 2 2 2 1 2 1 2 3 4 4
5 3 3 3 2 2 2 2 2 3 3 2 2 3 4 2 2 2 2 2 2 3 3 3 2 1 1 1 3 4 3 2 2 2 2 2 2 2 0 2 1 1 2 3
4 2 2 3 2 2 1 1 2 2 2 2 2 2 3 2 2 3 2 2 1 2 3 3 3 2 2 2 3 3 3 2 2 2 2 3 2 2 2 2 1 1 1 1
3 4 4 2 1 1 2 2 3 2 1 1 2 2 3 3 3 3 2 1 2 2 2 2 2 2 2 3 3 3 2 2 2 2 2 2 2 2 2 2 2 1 1 2
1 1 2 1 1 1 2 2 2 1 1 2 3 3 3 3 3 2 2 2 3 2 2 2 2 2 3 3 3 2 2 2 2 2 2 2 2 2 2 2 2 2 2 2
2 1 1 1 1 1 1 2 3 3 2 3 3 3 3 4 3 2 1 2 2 2 2 2 2 2 2 3 3 3 2 2 2 2 2 2 2 3 3 3 3 3 3 3
4 4 4 4 3 3 2 2 2 3 3 2 2 3 3 4 3 3 2 2 2 1 1 2 2 1 1 2 2 2 2 2 2 3 2 2 3 3 3 3 3 3 3 2
2 2 2 2 2 2 2 2 2 2 2 2 3 3 2 2 2 2 2 2 2 2 2 2 2 2 2 2 3 2 3 3 2 2 2 3 3 3 3 3 3 3 3 2
1 1 1 0 1 1 2 2 2 2 1 2 2 2 1 1 2 2 2 2 3 3 2 2 2 2 2 3 3 2 3 3 3 2 2 3 3 3 3 3 3 3 3 3
0 0 1 1 1 0 1 2 3 1 1 2 3 2 2 2 2 2 2 2 3 2 2 2 2 2 2 2 3 2 3 3 3 3 3 3 3 3 3 3 3 3 3 3
1 0 1 1 1 0 0 1 2 2 1 1 1 2 2 1 1 1 1 3 3 2 1 1 2 3 3 3 2 2 3 3 3 3 2 2 2 3 3 3 3 3 3 3
1 1 1 2 2 1 1 1 2 2 2 2 1 2 2 2 2 2 2 2 2 2 1 2 2 2 2 1 2 2 3 3 3 3 3 2 3 3 3 3 3 3 3 3
1 0 1 1 2 3 2 0 1 1 1 1 1 2 2 1 1 2 2 2 1 1 1 2 2 2 1 0 1 1 2 2 2 2 2 2 2 2 3 3 3 3 3 3
1 1 2 2 2 1 1 1 1 1 1 1 1 1 1 2 2 2 1 1 1 1 1 1 1 1 0 1 1 1 1 2 2 2 2 2 2 2 3 3 3 3 3 3
2 1 0 1 2 1 1 1 1 0 0 1 1 1 1 1 1 1 0 0 0 1 1 1 0 0 0 1 1 1 1 2 2 2 2 2 2 2 2 3 3 3 3 3
1 1 1 1 1 1 2 2 2 1 1 1 1 2 2 1 1 0 0 0 0 1 1 1 0 0 0 1 1 1 1 1 1 1 1 1 1 2 2 2 2 2 2 2
Wind_Direction
225 232 186 191 192 177 187 190 192 224 229 252 240 227 220 203 185 182 182 169 171 168 168 172 170 179 176 177 171 168 165 168 184 196 198 197 196 202 203 201 202 196 194 200
244 239 189 207 224 196 211 201 217 237 257 258 232 178 184 191 180 188 192 187 181 169 163 169 173 177 174 172 169 163 165 175 179 179 187 198 203 200 198 197 200 190 192 195
222 265 107 249 223 195 207 223 194 217 242 198 187 202 203 204 199 195 192 187 180 175 171 171 174 169 169 170 160 160 164 171 171 183 197 209 205 190 200 204 197 200 204 200
146 116 212 238 223 175 190 255 228 232 247 209 213 219 212 205 201 201 191 187 180 172 167 162 158 157 152 148 157 161 163 174 176 186 194 194 186 200 212 210 212 222 220 217
128 168 256 290 227 156 183 271 261 240 275 238 104 73 316 242 202 204 194 178 168 164 157 148 148 151 140 140 152 158 171 182 185 186 185 188 201 215 218 207 227 228 222 221
131 158 219 246 267 254 125 283 290 216 226 179 120 147 259 243 199 185 159 148 144 139 136 146 157 147 145 157 166 187 196 194 188 184 183 194 206 210 207 197 223 220 239 236
150 191 251 267 288 120 155 244 280 221 209 185 190 214 238 149 151 156 135 137 137 138 149 168 162 151 158 172 203 213 192 169 177 194 196 195 191 192 181 178 194 218 254 275
146 172 248 279 101 159 212 254 241 223 210 194 201 66 86 97 112 114 110 120 134 136 144 151 156 156 167 198 215 188 165 162 176 194 204 193 176 179 172 172 185 218 241 292
183 205 238 231 202 226 201 207 227 209 211 142 100 57 71 84 100 105 113 121 128 139 140 149 159 160 177 208 182 165 155 167 180 185 196 181 177 182 180 175 187 214 219 257
229 271 272 272 257 263 220 219 245 196 153 133 133 127 109 104 105 107 103 124 131 135 142 173 191 183 194 192 170 158 162 168 168 173 186 183 175 179 184 193 198 208 215 240
245 268 317 310 263 259 278 54 85 90 122 148 141 142 147 153 145 137 121 95 103 125 168 211 197 207 216 178 152 149 155 160 166 173 171 171 178 200 206 213 206 204 218 219
223 226 199 243 265 255 227 230 171 132 93 118 150 155 153 160 159 152 147 127 108 122 150 185 151 196 200 167 154 150 154 159 166 170 169 164 152 39 7 245 222 214 211 210
225 233 217 243 277 259 226 219 179 152 150 147 154 159 158 158 156 139 137 144 174 177 164 150 144 177 174 159 148 148 162 170 174 174 173 175 174 171 212 0 21 238 219 214
221 191 255 266 264 270 195 102 89 92 96 114 127 137 136 128 133 141 165 194 182 152 143 145 151 177 181 151 144 147 151 164 180 196 190 187 193 198 192 192 238 319 316 256
248 206 215 235 275 78 102 101 90 70 75 96 126 136 139 144 157 171 179 150 118 125 131 138 156 200 184 157 156 162 166 180 198 213 202 190 192 192 193 194 204 237 288 314
267 127 149 154 193 131 107 117 129 208 153 134 132 141 151 157 157 154 152 148 145 162 183 180 206 216 172 158 160 165 180 194 201 197 203 190 192 195 197 198 214 232 243 253
166 180 176 178 244 252 219 201 190 204 171 151 162 151 132 129 131 142 162 177 170 182 187 189 221 228 185 171 170 178 182 181 181 190 204 206 206 211 213 215 222 231 245 246
207 204 198 197 202 223 231 198 174 164 167 176 150 136 139 151 171 189 189 154 120 98 251 226 221 221 204 188 180 179 181 192 198 207 213 214 218 219 217 220 226 234 254 258
212 202 208 215 213 206 205 191 179 177 180 159 146 163 181 188 190 186 160 152 164 219 257 245 236 213 218 214 189 175 182 193 206 215 220 218 221 222 220 223 230 235 237 237
219 201 185 289 94 143 169 174 155 160 174 157 149 154 186 217 191 167 168 204 226 226 232 242 231 227 225 211 194 186 191 200 206 216 227 229 229 232 231 230 231 238 241 237
259 219 141 128 109 116 170 165 155 164 187 149 157 182 209 231 210 171 168 252 276 260 243 250 239 238 236 227 210 201 203 209 211 218 229 236 236 235 231 231 235 240 242 244
277 179 159 157 151 276 285 162 154 151 146 157 175 172 168 194 215 215 229 243 265 279 273 258 258 252 245 235 219 213 222 224 222 218 222 225 225 232 239 237 238 243 243 247
291 208 175 174 171 167 114 122 139 148 158 184 201 194 194 210 207 203 262 271 260 263 270 264 268 267 248 232 219 218 222 228 231 224 217 219 226 230 234 240 242 243 244 248
350 140 144 134 121 119 120 123 121 127 160 212 223 209 197 211 266 250 239 253 251 241 254 264 263 260 239 240 224 223 220 222 225 224 221 221 222 226 231 233 238 245 248 252
21 56 98 118 124 150 180 146 76 54 51 12 336 314 248 207 210 243 246 245 253 264 295 285 256 249 236 251 248 232 219 218 219 218 222 220 218 221 231 235 238 243 246 252
28 24 133 176 178 187 181 154 144 156 105 31 339 322 314 296 229 227 226 266 307 337 337 320 278 227 254 241 235 241 243 238 229 226 225 225 212 213 228 237 246 249 250 252
32 29 24 12 6 176 164 160 170 204 209 196 281 304 307 313 327 351 23 27 15 360 334 317 292 246 234 237 243 254 257 243 222 212 207 207 210 219 231 239 249 253 253 253
Height
1477 1473 1474 1476 1478 1480 1483 1487 1493 1487 1484 1474 1470 1470 1469 1469 1470 1471 1473 1474 1476 1479 1482 1485 1487 1490 1492 1494 1497 1499 1501 1502 1504 1506 1508 1509 1510 1510 1510 1511 1511 1512 1513 1513
1476 1472 1473 1475 1474 1476 1477 1478 1480 1479 1477 1468 1467 1468 1468 1468 1469 1470 1471 1473 1476 1478 1481 1484 1486 1488 1490 1492 1495 1497 1499 1500 1502 1504 1506 1506 1507 1507 1508 1508 1509 1509 1509 1510
1485 1476 1475 1483 1475 1475 1475 1473 1474 1477 1471 1466 1466 1466 1466 1467 1468 1468 1470 1471 1474 1476 1479 1482 1484 1486 1488 1490 1492 1494 1496 1498 1499 1501 1502 1503 1504 1504 1504 1505 1506 1506 1506 1507
1488 1483 1492 1479 1467 1467 1470 1469 1467 1466 1465 1464 1463 1464 1465 1466 1466 1468 1469 1471 1473 1475 1477 1480 1482 1485 1486 1488 1490 1492 1493 1494 1496 1498 1499 1500 1501 1501 1502 1502 1503 1503 1503 1503
1491 1491 1485 1474 1467 1468 1471 1470 1465 1464 1463 1464 1463 1464 1465 1465 1466 1467 1469 1470 1472 1475 1477 1479 1481 1483 1485 1486 1488 1490 1490 1492 1493 1495 1495 1496 1497 1498 1499 1499 1499 1500 1500 1500
1488 1489 1490 1475 1464 1463 1467 1473 1464 1463 1463 1464 1464 1468 1465 1463 1464 1466 1468 1469 1471 1474 1476 1478 1479 1481 1483 1484 1486 1487 1488 1489 1490 1492 1493 1493 1494 1495 1496 1496 1496 1497 1497 1497
1486 1486 1480 1467 1463 1463 1477 1473 1462 1461 1461 1462 1462 1463 1462 1461 1463 1465 1466 1468 1470 1472 1474 1476 1478 1479 1480 1481 1483 1485 1486 1487 1488 1490 1490 1491 1492 1492 1493 1493 1493 1493 1493 1494
1486 1486 1482 1463 1463 1466 1466 1461 1460 1460 1460 1460 1460 1460 1460 1461 1462 1463 1465 1467 1470 1471 1472 1474 1476 1477 1478 1480 1481 1482 1483 1484 1486 1487 1488 1488 1489 1489 1489 1490 1490 1490 1491 1491
1474 1473 1464 1461 1461 1460 1460 1459 1459 1458 1458 1459 1459 1460 1460 1462 1463 1464 1465 1467 1469 1470 1471 1473 1474 1475 1476 1478 1479 1480 1480 1481 1483 1484 1486 1486 1486 1486 1487 1487 1487 1488 1488 1487
1468 1464 1460 1459 1459 1459 1458 1458 1458 1457 1457 1457 1458 1459 1460 1462 1463 1464 1465 1466 1467 1468 1469 1471 1472 1473 1475 1476 1476 1477 1478 1479 1480 1481 1482 1483 1483 1483 1484 1484 1484 1485 1484 1484
1466 1461 1459 1458 1457 1457 1457 1457 1456 1456 1456 1457 1457 1457 1459 1460 1461 1463 1465 1466 1466 1467 1468 1469 1470 1471 1473 1473 1474 1474 1475 1476 1477 1478 1479 1479 1480 1481 1481 1481 1482 1482 1481 1481
1463 1458 1458 1457 1457 1457 1456 1455 1455 1455 1455 1456 1456 1457 1458 1459 1460 1462 1464 1465 1465 1466 1467 1468 1469 1470 1471 1472 1472 1472 1473 1474 1475 1475 1476 1476 1477 1477 1478 1478 1479 1479 1479 1479
1456 1455 1455 1455 1456 1456 1455 1454 1454 1454 1454 1454 1455 1456 1457 1458 1460 1461 1463 1464 1464 1464 1465 1466 1467 1468 1469 1470 1470 1470 1471 1471 1472 1473 1473 1473 1474 1474 1474 1475 1476 1476 1476 1476
1453 1454 1454 1453 1454 1454 1454 1453 1453 1453 1453 1453 1454 1455 1456 1458 1459 1460 1461 1463 1463 1463 1463 1464 1465 1467 1467 1468 1468 1469 1469 1469 1470 1470 1470 1470 1471 1471 1472 1472 1472 1473 1473 1474
1451 1452 1452 1452 1452 1452 1453 1453 1452 1452 1451 1452 1454 1454 1455 1457 1458 1459 1460 1461 1462 1462 1462 1463 1464 1464 1465 1465 1466 1466 1466 1467 1468 1469 1468 1468 1468 1469 1469 1470 1469 1470 1470 1471
1449 1449 1450 1451 1451 1451 1451 1452 1451 1451 1451 1451 1452 1453 1454 1456 1457 1459 1460 1460 1460 1460 1460 1461 1462 1462 1462 1463 1463 1464 1464 1465 1465 1466 1466 1465 1466 1466 1467 1467 1467 1467 1467 1467
1447 1448 1448 1449 1449 1450 1450 1451 1451 1451 1451 1451 1452 1453 1454 1455 1456 1457 1458 1459 1459 1459 1459 1459 1460 1460 1460 1460 1461 1461 1461 1461 1462 1463 1463 1463 1463 1464 1464 1464 1464 1464 1464 1464
1446 1446 1447 1448 1448 1448 1449 1450 1450 1450 1451 1451 1452 1453 1453 1454 1455 1455 1456 1457 1457 1458 1457 1457 1458 1458 1458 1458 1458 1458 1458 1459 1459 1460 1460 1460 1461 1461 1461 1461 1461 1461 1461 1461
1445 1445 1445 1446 1446 1447 1447 1448 1449 1450 1451 1451 1451 1452 1453 1453 1454 1455 1455 1455 1455 1455 1455 1455 1455 1455 1455 1456 1456 1456 1456 1456 1457 1457 1457 1458 1458 1458 1458 1458 1458 1458 1458 1458
1443 1443 1443 1444 1444 1445 1446 1447 1448 1449 1450 1450 1450 1451 1452 1452 1453 1453 1453 1453 1453 1453 1453 1453 1453 1453 1453 1453 1453 1453 1453 1454 1454 1454 1454 1455 1454 1455 1455 1455 1455 1455 1454 1454
1441 1441 1441 1442 1443 1444 1445 1446 1446 1447 1448 1449 1449 1449 1450 1450 1451 1451 1450 1450 1451 1451 1451 1451 1451 1451 1451 1451 1451 1451 1451 1451 1451 1451 1451 1451 1451 1451 1451 1451 1451 1451 1451 1451
1439 1439 1440 1441 1442 1443 1443 1444 1445 1445 1446 1447 1448 1448 1448 1449 1449 1448 1449 1449 1449 1449 1448 1448 1448 1448 1448 1448 1447 1447 1448 1448 1448 1448 1448 1448 1448 1448 1447 1448 1448 1448 1447 1447
1438 1438 1439 1440 1441 1442 1442 1443 1444 1444 1445 1446 1446 1446 1446 1447 1447 1447 1447 1447 1447 1447 1446 1446 1446 1446 1445 1445 1445 1444 1444 1445 1444 1444 1444 1444 1444 1444 1444 1444 1444 1444 1444 1444
1437 1437 1438 1439 1440 1441 1441 1442 1443 1443 1444 1445 1445 1445 1445 1445 1445 1445 1445 1445 1445 1445 1445 1444 1444 1444 1443 1442 1442 1442 1442 1442 1442 1441 1441 1441 1441 1441 1441 1441 1441 1441 1441 1441
1437 1438 1438 1439 1440 1440 1441 1442 1442 1442 1443 1443 1444 1444 1444 1443 1443 1443 1444 1443 1443 1443 1443 1443 1443 1442 1441 1441 1440 1440 1439 1439 1439 1439 1438 1438 1437 1438 1438 1438 1438 1438 1437 1437
1438 1438 1439 1439 1439 1440 1441 1441 1441 1442 1442 1442 1443 1443 1443 1443 1442 1442 1442 1442 1442 1442 1441 1441 1441 1440 1440 1439 1438 1438 1438 1437 1437 1436 1436 1435 1435 1435 1435 1435 1435 1435 1434 1434
1439 1439 1439 1439 1440 1440 1440 1440 1441 1441 1441 1441 1441 1442 1442 1442 1441 1441 1441 1441 1440 1440 1440 1439 1439 1438 1438 1437 1437 1436 1436 1436 1435 1435 1434 1434 1433 1433 1433 1432 1432 1432 1432 1431